Weather in Mazanovo

Russia / Amur Oblast     51°37′51″N   128°49′29″E
temp.,
°C
wind,
m/s
gust,
m/s
humid.,
%
clouds,
%
prec.,
mm/h
press.,
hPa
HPBL,
m
28 september, tue
tue2800:00+8sw310770 0.0 1010213
03:00+7ssw238068 0.0 101156
06:00+6ssw228311 0.0 101230
09:00+11s246610 0.0 1011236
12:00+15sse5854100 0.0 1009891
15:00+15se51167100 0.0 10051104
18:00+14sse61672100 1.1 10021043
21:00+15s81769100 1.1 10001207
29 september, wed
wed2900:00+14ssw71683100 1.1 9991283
03:00+7wnw3795100 5.6 1002444
06:00+7nw3787100 0.3 1004648
09:00+8wnw367928 0.3 1005545
12:00+12nw245523 0.0 10051175
15:00+13wnw3447100 0.0 10051679
18:00+9wsw1166100 0.0 100610
21:00+7ene1168100 0.0 100710
30 september, thu
thu3000:00+8sse1169100 0.0 100511
03:00+7ese117484 0.0 100416
06:00+5se119432 1.6 100313
09:00+7wsw238682 1.9 1002398
12:00+6wnw5690100 1.3 1003892
15:00+7wsw4682100 2.3 1003904
18:00+6sw3883100 0.8 1004241
21:00+4wsw129085 1.1 100432
1 october, fri
fri100:00+3w229056 0.0 100533
03:00+2wsw25925 0.0 1005103
06:00+1wsw259427 0.0 1007110
09:00+4w247646 0.0 1008344
12:00+8sw35549 0.0 10081266
15:00+9wsw3648100 0.0 10071752
18:00+5wnw3486100 0.4 1009598
21:00+2s009644 1.1 101050
2 october, sat
sat200:00+1wsw11960 0.0 101112
03:000wsw11930 0.0 101211
06:000ssw11930 0.0 101310
09:00+5sw12760 0.0 1014261
12:00+9sw22545 0.0 10141193
15:00+9wsw234423 0.0 10131728
18:00+5ene01645 0.0 101510
21:00+3ene01715 0.0 101510